Time,TemperatureF,DewpointF,PressureIn,WindDirection,WindDirectionDegrees,WindSpeedMPH,WindSpeedGustMPH,Humidity,HourlyPrecipIn,Conditions,Clouds,dailyrainin,SoftwareType,DateUTC
2013-03-26 00:12:00,39.0,33.0,29.39,NE,40,27.0,36.0,77,-99.99,,,-99.99,,2013-03-26 04:12:00,
2013-03-26 00:22:00,39.0,33.0,29.39,NE,40,27.0,36.0,77,-99.99,,,-99.99,,2013-03-26 04:22:00,
2013-03-26 00:32:00,39.0,33.0,29.39,NE,40,27.0,36.0,77,-99.99,,,-99.99,,2013-03-26 04:32:00,
2013-03-26 00:42:00,39.0,33.0,29.39,NE,40,27.0,36.0,77,-99.99,,,-99.99,,2013-03-26 04:42:00,
2013-03-26 00:50:00,39.0,33.0,29.39,NE,40,27.0,31.0,76,-99.99,,,-99.99,,2013-03-26 04:50:00,
2013-03-26 01:11:00,39.0,33.0,29.39,NE,40,27.0,31.0,76,-99.99,,,-99.99,,2013-03-26 05:11:00,
2013-03-26 01:21:00,39.0,33.0,29.39,NE,40,27.0,31.0,76,-99.99,,,-99.99,,2013-03-26 05:21:00,
2013-03-26 01:32:00,39.0,33.0,29.39,NE,40,27.0,31.0,76,-99.99,,,-99.99,,2013-03-26 05:32:00,
2013-03-26 01:42:00,39.0,33.0,29.39,NE,40,27.0,31.0,76,-99.99,,,-99.99,,2013-03-26 05:42:00,
2013-03-26 01:50:00,39.0,33.0,29.41,NNE,20,25.0,31.0,76,-99.99,,,-99.99,,2013-03-26 05:50:00,
2013-03-26 02:11:00,39.0,33.0,29.41,NNE,20,25.0,31.0,76,-99.99,,,-99.99,,2013-03-26 06:11:00,
2013-03-26 02:21:00,39.0,33.0,29.41,NNE,20,25.0,31.0,76,-99.99,,,-99.99,,2013-03-26 06:21:00,
2013-03-26 02:31:00,39.0,33.0,29.41,NNE,20,25.0,31.0,76,-99.99,,,-99.99,,2013-03-26 06:31:00,
2013-03-26 02:41:00,39.0,33.0,29.41,NNE,20,25.0,31.0,76,-99.99,,,-99.99,,2013-03-26 06:41:00,
2013-03-26 02:50:00,38.0,33.0,29.43,North,360,18.0,22.0,83,-99.99,,,-99.99,,2013-03-26 06:50:00,
2013-03-26 03:11:00,38.0,33.0,29.43,North,360,18.0,22.0,83,-99.99,,,-99.99,,2013-03-26 07:11:00,
2013-03-26 03:21:00,38.0,33.0,29.43,North,360,18.0,22.0,83,-99.99,,,-99.99,,2013-03-26 07:21:00,
2013-03-26 03:32:00,38.0,33.0,29.43,North,360,18.0,22.0,83,-99.99,,,-99.99,,2013-03-26 07:32:00,
2013-03-26 03:41:00,38.0,33.0,29.43,North,360,18.0,22.0,83,-99.99,,,-99.99,,2013-03-26 07:41:00,
2013-03-26 03:50:00,38.0,31.0,29.45,NNE,20,22.0,27.0,76,-99.99,,,-99.99,,2013-03-26 07:50:00,
2013-03-26 04:12:00,38.0,31.0,29.45,NNE,20,22.0,27.0,76,-99.99,,,-99.99,,2013-03-26 08:12:00,
2013-03-26 04:21:00,38.0,31.0,29.45,NNE,20,22.0,27.0,76,-99.99,,,-99.99,,2013-03-26 08:21:00,
2013-03-26 04:31:00,38.0,31.0,29.45,NNE,20,22.0,27.0,76,-99.99,,,-99.99,,2013-03-26 08:31:00,
2013-03-26 04:41:00,38.0,31.0,29.45,NNE,20,22.0,27.0,76,-99.99,,,-99.99,,2013-03-26 08:41:00,
2013-03-26 04:50:00,37.0,32.0,29.47,North,10,25.0,29.0,81,-99.99,,,-99.99,,2013-03-26 08:50:00,
2013-03-26 05:11:00,37.0,32.0,29.47,North,10,25.0,29.0,81,-99.99,,,-99.99,,2013-03-26 09:11:00,
2013-03-26 05:21:00,37.0,32.0,29.47,North,10,25.0,29.0,81,-99.99,,,-99.99,,2013-03-26 09:21:00,
2013-03-26 05:32:00,37.0,32.0,29.47,North,10,25.0,29.0,81,-99.99,,,-99.99,,2013-03-26 09:32:00,
2013-03-26 05:42:00,37.0,32.0,29.47,North,10,25.0,29.0,81,-99.99,,,-99.99,,2013-03-26 09:42:00,
2013-03-26 05:50:00,38.0,32.0,29.51,North,360,18.0,27.0,80,-99.99,,,-99.99,,2013-03-26 09:50:00,
2013-03-26 06:12:00,38.0,32.0,29.51,North,360,18.0,27.0,80,-99.99,,,-99.99,,2013-03-26 10:12:00,
2013-03-26 06:22:00,38.0,32.0,29.51,North,360,18.0,27.0,80,-99.99,,,-99.99,,2013-03-26 10:22:00,
2013-03-26 06:32:00,38.0,32.0,29.51,North,360,18.0,27.0,80,-99.99,,,-99.99,,2013-03-26 10:32:00,
2013-03-26 06:42:00,38.0,32.0,29.51,North,360,18.0,27.0,80,-99.99,,,-99.99,,2013-03-26 10:42:00,
2013-03-26 06:50:00,38.0,30.0,29.54,North,350,25.0,29.0,72,-99.99,,,-99.99,,2013-03-26 10:50:00,
2013-03-26 07:11:00,38.0,30.0,29.54,North,350,25.0,29.0,72,-99.99,,,-99.99,,2013-03-26 11:11:00,
2013-03-26 07:21:00,38.0,30.0,29.54,North,350,25.0,29.0,72,-99.99,,,-99.99,,2013-03-26 11:21:00,
2013-03-26 07:31:00,38.0,30.0,29.54,North,350,25.0,29.0,72,-99.99,,,-99.99,,2013-03-26 11:31:00,
2013-03-26 07:41:00,38.0,30.0,29.54,North,350,25.0,29.0,72,-99.99,,,-99.99,,2013-03-26 11:41:00,
2013-03-26 07:50:00,38.0,28.0,29.56,NNW,340,25.0,29.0,67,-99.99,,,-99.99,,2013-03-26 11:50:00,
2013-03-26 08:11:00,38.0,28.0,29.56,NNW,340,25.0,29.0,67,-99.99,,,-99.99,,2013-03-26 12:11:00,
2013-03-26 08:21:00,38.0,28.0,29.56,NNW,340,25.0,29.0,67,-99.99,,,-99.99,,2013-03-26 12:21:00,
2013-03-26 08:31:00,38.0,28.0,29.56,NNW,340,25.0,29.0,67,-99.99,,,-99.99,,2013-03-26 12:31:00,
2013-03-26 08:41:00,38.0,28.0,29.56,NNW,340,25.0,29.0,67,-99.99,,,-99.99,,2013-03-26 12:41:00,
2013-03-26 08:50:00,38.0,27.0,29.59,North,350,22.0,27.0,64,-99.99,,,-99.99,,2013-03-26 12:50:00,
2013-03-26 09:11:00,38.0,27.0,29.59,North,350,22.0,27.0,64,-99.99,,,-99.99,,2013-03-26 13:11:00,
2013-03-26 09:22:00,38.0,27.0,29.59,North,350,22.0,27.0,64,-99.99,,,-99.99,,2013-03-26 13:22:00,
2013-03-26 09:31:00,38.0,27.0,29.59,North,350,22.0,27.0,64,-99.99,,,-99.99,,2013-03-26 13:31:00,
2013-03-26 09:41:00,38.0,27.0,29.59,North,350,22.0,27.0,64,-99.99,,,-99.99,,2013-03-26 13:41:00,
2013-03-26 09:50:00,38.0,27.0,29.62,NNW,340,22.0,27.0,64,-99.99,,,-99.99,,2013-03-26 13:50:00,
2013-03-26 10:11:00,38.0,27.0,29.62,NNW,340,22.0,27.0,64,-99.99,,,-99.99,,2013-03-26 14:11:00,
2013-03-26 10:21:00,38.0,27.0,29.62,NNW,340,22.0,27.0,64,-99.99,,,-99.99,,2013-03-26 14:21:00,
2013-03-26 10:31:00,38.0,27.0,29.62,NNW,340,22.0,27.0,64,-99.99,,,-99.99,,2013-03-26 14:31:00,
2013-03-26 10:41:00,38.0,27.0,29.62,NNW,340,22.0,27.0,64,-99.99,,,-99.99,,2013-03-26 14:41:00,
2013-03-26 10:50:00,38.0,28.0,29.64,NNW,340,22.0,27.0,66,-99.99,,,-99.99,,2013-03-26 14:50:00,
2013-03-26 11:11:00,38.0,28.0,29.64,NNW,340,22.0,27.0,66,-99.99,,,-99.99,,2013-03-26 15:11:00,
2013-03-26 11:21:00,38.0,28.0,29.64,NNW,340,22.0,27.0,66,-99.99,,,-99.99,,2013-03-26 15:21:00,
2013-03-26 11:32:00,38.0,28.0,29.64,NNW,340,22.0,27.0,66,-99.99,,,-99.99,,2013-03-26 15:32:00,
2013-03-26 11:42:00,38.0,28.0,29.64,NNW,340,22.0,27.0,66,-99.99,,,-99.99,,2013-03-26 15:42:00,
2013-03-26 11:50:00,38.0,27.0,29.65,NNW,340,22.0,27.0,65,-99.99,,,-99.99,,2013-03-26 15:50:00,
2013-03-26 12:12:00,38.0,27.0,29.65,NNW,340,22.0,27.0,65,-99.99,,,-99.99,,2013-03-26 16:12:00,
2013-03-26 12:22:00,38.0,27.0,29.65,NNW,340,22.0,27.0,65,-99.99,,,-99.99,,2013-03-26 16:22:00,
2013-03-26 12:32:00,38.0,27.0,29.65,NNW,340,22.0,27.0,65,-99.99,,,-99.99,,2013-03-26 16:32:00,
2013-03-26 12:41:00,38.0,27.0,29.65,NNW,340,22.0,27.0,65,-99.99,,,-99.99,,2013-03-26 16:41:00,
2013-03-26 12:50:00,38.0,27.0,29.67,NNW,340,18.0,22.0,63,-99.99,,,-99.99,,2013-03-26 16:50:00,
2013-03-26 13:12:00,38.0,27.0,29.67,NNW,340,18.0,22.0,63,-99.99,,,-99.99,,2013-03-26 17:12:00,
2013-03-26 13:22:00,38.0,27.0,29.67,NNW,340,18.0,22.0,63,-99.99,,,-99.99,,2013-03-26 17:22:00,
2013-03-26 13:31:00,38.0,27.0,29.67,NNW,340,18.0,22.0,63,-99.99,,,-99.99,,2013-03-26 17:31:00,
2013-03-26 13:41:00,38.0,27.0,29.67,NNW,340,18.0,22.0,63,-99.99,,,-99.99,,2013-03-26 17:41:00,
2013-03-26 13:50:00,39.0,27.0,29.67,NNW,340,18.0,22.0,61,-99.99,,,-99.99,,2013-03-26 17:50:00,
2013-03-26 14:12:00,39.0,27.0,29.67,NNW,340,18.0,22.0,61,-99.99,,,-99.99,,2013-03-26 18:12:00,
2013-03-26 14:22:00,39.0,27.0,29.67,NNW,340,18.0,22.0,61,-99.99,,,-99.99,,2013-03-26 18:22:00,
2013-03-26 14:33:00,39.0,27.0,29.67,NNW,340,18.0,22.0,61,-99.99,,,-99.99,,2013-03-26 18:33:00,
2013-03-26 14:41:00,39.0,27.0,29.67,NNW,340,18.0,22.0,61,-99.99,,,-99.99,,2013-03-26 18:41:00,
2013-03-26 14:50:00,40.0,26.0,29.67,North,360,13.0,16.0,57,-99.99,,,-99.99,,2013-03-26 18:50:00,
2013-03-26 15:11:00,40.0,26.0,29.67,North,360,13.0,16.0,57,-99.99,,,-99.99,,2013-03-26 19:11:00,
2013-03-26 15:21:00,40.0,26.0,29.67,North,360,13.0,16.0,57,-99.99,,,-99.99,,2013-03-26 19:21:00,
2013-03-26 15:32:00,40.0,26.0,29.67,North,360,13.0,16.0,57,-99.99,,,-99.99,,2013-03-26 19:32:00,
2013-03-26 15:41:00,40.0,26.0,29.67,North,360,13.0,16.0,57,-99.99,,,-99.99,,2013-03-26 19:41:00,
2013-03-26 15:50:00,41.0,30.0,29.69,North,360,4.0,4.0,64,-99.99,,,-99.99,,2013-03-26 19:50:00,
2013-03-26 16:11:00,41.0,30.0,29.69,North,360,4.0,4.0,64,-99.99,,,-99.99,,2013-03-26 20:11:00,
2013-03-26 16:21:00,41.0,30.0,29.69,North,360,4.0,4.0,64,-99.99,,,-99.99,,2013-03-26 20:21:00,
2013-03-26 16:31:00,41.0,30.0,29.69,North,360,4.0,4.0,64,-99.99,,,-99.99,,2013-03-26 20:31:00,
2013-03-26 16:42:00,41.0,30.0,29.69,North,360,4.0,4.0,64,-99.99,,,-99.99,,2013-03-26 20:42:00,
2013-03-26 16:50:00,41.0,30.0,29.70,SW,220,4.0,7.0,64,-99.99,,,-99.99,,2013-03-26 20:50:00,
2013-03-26 17:21:00,41.0,30.0,29.70,SW,220,4.0,7.0,64,-99.99,,,-99.99,,2013-03-26 21:21:00,
2013-03-26 17:32:00,41.0,30.0,29.70,SW,220,4.0,7.0,64,-99.99,,,-99.99,,2013-03-26 21:32:00,
2013-03-26 17:42:00,41.0,30.0,29.70,SW,220,4.0,7.0,64,-99.99,,,-99.99,,2013-03-26 21:42:00,
2013-03-26 17:50:00,41.0,29.0,29.72,SSW,210,11.0,13.0,63,-99.99,,,-99.99,,2013-03-26 21:50:00,
2013-03-26 18:11:00,41.0,29.0,29.72,SSW,210,11.0,13.0,63,-99.99,,,-99.99,,2013-03-26 22:11:00,
2013-03-26 18:22:00,41.0,29.0,29.72,SSW,210,11.0,13.0,63,-99.99,,,-99.99,,2013-03-26 22:22:00,
2013-03-26 18:32:00,41.0,29.0,29.72,SSW,210,11.0,13.0,63,-99.99,,,-99.99,,2013-03-26 22:32:00,
2013-03-26 18:41:00,41.0,29.0,29.72,SSW,210,11.0,13.0,63,-99.99,,,-99.99,,2013-03-26 22:41:00,
2013-03-26 18:50:00,40.0,34.0,29.74,SSW,210,11.0,13.0,77,-99.99,,,-99.99,,2013-03-26 22:50:00,
2013-03-26 19:10:00,40.0,34.0,29.74,SSW,210,11.0,13.0,77,-99.99,,,-99.99,,2013-03-26 23:10:00,
2013-03-26 19:21:00,40.0,34.0,29.74,SSW,210,11.0,13.0,77,-99.99,,,-99.99,,2013-03-26 23:21:00,
2013-03-26 19:31:00,40.0,34.0,29.74,SSW,210,11.0,13.0,77,-99.99,,,-99.99,,2013-03-26 23:31:00,
2013-03-26 19:42:00,40.0,34.0,29.74,SSW,210,11.0,13.0,77,-99.99,,,-99.99,,2013-03-26 23:42:00,
2013-03-26 19:50:00,40.0,35.0,29.75,WSW,240,11.0,13.0,82,-99.99,,,-99.99,,2013-03-26 23:50:00,
2013-03-26 20:11:00,40.0,35.0,29.75,WSW,240,11.0,13.0,82,-99.99,,,-99.99,,2013-03-27 00:11:00,
2013-03-26 20:21:00,40.0,35.0,29.75,WSW,240,11.0,13.0,82,-99.99,,,-99.99,,2013-03-27 00:21:00,
2013-03-26 20:32:00,40.0,35.0,29.75,WSW,240,11.0,13.0,82,-99.99,,,-99.99,,2013-03-27 00:32:00,
2013-03-26 20:41:00,40.0,35.0,29.75,WSW,240,11.0,13.0,82,-99.99,,,-99.99,,2013-03-27 00:41:00,
2013-03-26 20:50:00,40.0,35.0,29.76,SW,230,11.0,13.0,81,-99.99,,,-99.99,,2013-03-27 00:50:00,
2013-03-26 21:11:00,40.0,35.0,29.76,SW,230,11.0,13.0,81,-99.99,,,-99.99,,2013-03-27 01:11:00,
2013-03-26 21:21:00,40.0,35.0,29.76,SW,230,11.0,13.0,81,-99.99,,,-99.99,,2013-03-27 01:21:00,
2013-03-26 21:31:00,40.0,35.0,29.76,SW,230,11.0,13.0,81,-99.99,,,-99.99,,2013-03-27 01:31:00,
2013-03-26 21:41:00,40.0,35.0,29.76,SW,230,11.0,13.0,81,-99.99,,,-99.99,,2013-03-27 01:41:00,
2013-03-26 21:50:00,40.0,35.0,29.76,West,260,16.0,18.0,80,-99.99,,,-99.99,,2013-03-27 01:50:00,
2013-03-26 22:21:00,40.0,35.0,29.76,West,260,16.0,18.0,80,-99.99,,,-99.99,,2013-03-27 02:21:00,
2013-03-26 22:31:00,40.0,35.0,29.76,West,260,16.0,18.0,80,-99.99,,,-99.99,,2013-03-27 02:31:00,
2013-03-26 22:41:00,40.0,35.0,29.76,West,260,16.0,18.0,80,-99.99,,,-99.99,,2013-03-27 02:41:00,
2013-03-26 22:50:00,40.0,34.0,29.76,West,260,16.0,18.0,78,-99.99,,,-99.99,,2013-03-27 02:50:00,
2013-03-26 23:11:00,40.0,34.0,29.76,West,260,16.0,18.0,78,-99.99,,,-99.99,,2013-03-27 03:11:00,
2013-03-26 23:21:00,40.0,34.0,29.76,West,260,16.0,18.0,78,-99.99,,,-99.99,,2013-03-27 03:21:00,
2013-03-26 23:32:00,40.0,34.0,29.76,West,260,16.0,18.0,78,-99.99,,,-99.99,,2013-03-27 03:32:00,
2013-03-26 23:42:00,40.0,34.0,29.76,West,260,16.0,18.0,78,-99.99,,,-99.99,,2013-03-27 03:42:00,
2013-03-26 23:50:00,40.0,33.0,29.76,West,260,16.0,18.0,75,-99.99,,,-99.99,,2013-03-27 03:50:00,